Weather History for KCBG - July, 2013

Change the Weather History Date:

Tuesday, July 30, 2013

  Actual Average Record
Temperature  
Mean Temperature 64 °F -  
Max Temperature 69 °F 81 °F 96 °F (2006)
Min Temperature 60 °F 58 °F 45 °F (1971)
Growing Degree Days 14 (Base 50)    
Moisture  
Dew Point 61 °F    
Average Humidity 88    
Maximum Humidity 94    
Minimum Humidity 78    
Precipitation  
Precipitation 0.06 in - - ()
Sea Level Pressure  
Sea Level Pressure 30.08 in    
Wind  
Wind Speed 2 mph (SSE)    
Max Wind Speed 8 mph    
Max Gust Speed -    
Visibility 9 miles    
Events Fog , Rain    
Averages and records for this station are not official NWS values.
T = Trace of Precipitation, MM = Missing Value Source: NWS Daily Summary

Daily Weather History Graph

Daily Weather History Graph

Search for Another Location

Airport or City:

Trip Planner

Search our weather history database for the weather conditions in past years. The results will help you decide how hot, cold, wet, or windy it might be!

Date:

Astronomy

Jul. 30, 2013 Rise Set
Actual Time 5:54 AM CDT 8:43 PM CDT
Civil Twilight 5:20 AM CDT 9:17 PM CDT
Nautical Twilight 4:36 AM CDT 10:01 PM CDT
Astronomical Twilight 3:45 AM CDT 10:52 PM CDT
Moon 12:15 AM CDT (7/30) 3:03 PM CDT (7/30)
Length of Visible Light 15h 57m
Length of Day
14h 48m
Last Quarter, 41% of the Moon is Illuminated
Jul 30
Last Quarter
Aug 6
New
Aug 14
First Quarter
Aug 20
Full
Aug 28
Last Quarter

Hourly Weather History & Observations

Time (CDT) Temp. Dew Point Humidity Pressure Visibility Wind Dir Wind Speed Gust Speed Precip Events Conditions
12:13 AM 64.4 °F 60.8 °F 88% 30.08 in 10.0 mi SE 3.5 mph - N/A Rain Light Rain
12:35 AM 64.4 °F 60.8 °F 88% 30.08 in 10.0 mi Calm Calm - N/A Rain Rain
12:46 AM 64.4 °F 60.8 °F 88% 30.08 in 10.0 mi Calm Calm - N/A   Overcast
1:15 AM 64.4 °F 59.0 °F 83% 30.09 in 10.0 mi Calm Calm - N/A   Overcast
1:35 AM 64.4 °F 60.8 °F 88% 30.09 in 10.0 mi Calm Calm - N/A   Overcast
1:55 AM 62.6 °F 59.0 °F 88% 30.09 in 10.0 mi Calm Calm - N/A   Overcast
2:15 AM - - N/A% 30.09 in 10.0 mi South 3.5 mph - N/A   Overcast
2:35 AM 62.6 °F 59.0 °F 88% 30.08 in - South 4.6 mph - N/A   Overcast
2:54 AM 62.6 °F 59.0 °F 88% 30.09 in 10.0 mi South 5.8 mph - N/A   Overcast
3:15 AM 62.6 °F 57.2 °F 82% 30.09 in 10.0 mi South 8.1 mph - N/A Rain Rain
3:35 AM 60.8 °F 57.2 °F 88% 30.08 in 10.0 mi Calm Calm - 0.01 in Rain Rain
3:55 AM 60.8 °F 57.2 °F 88% 30.09 in 10.0 mi Calm Calm - 0.01 in Rain Rain
4:14 AM 60.8 °F 57.2 °F 88% 30.08 in 10.0 mi Calm Calm - 0.01 in Rain Light Rain
4:35 AM 60.8 °F 57.2 °F 88% 30.09 in 7.0 mi Calm Calm - 0.01 in Rain Rain
4:54 AM 60.8 °F 57.2 °F 88% 30.08 in 10.0 mi Calm Calm - N/A Rain Light Rain
5:15 AM 60.8 °F 57.2 °F 88% 30.09 in 10.0 mi Calm Calm - N/A Rain Heavy Rain
5:35 AM 60.8 °F 57.2 °F 88% 30.08 in 10.0 mi Calm Calm - N/A Rain Rain
5:54 AM 60.8 °F 57.2 °F 88% 30.09 in 10.0 mi Calm Calm - N/A   Overcast
6:15 AM 60.8 °F 57.2 °F 88% 30.09 in 10.0 mi Calm Calm - 0.01 in Rain Light Rain
6:35 AM 60.8 °F 57.2 °F 88% 30.09 in 7.0 mi Calm Calm - 0.01 in Rain Rain
6:55 AM 60.8 °F 57.2 °F 88% 30.10 in 7.0 mi Calm Calm - 0.01 in   Drizzle
7:15 AM 60.8 °F 57.2 °F 88% 30.11 in 4.0 mi Calm Calm - N/A   Drizzle
7:34 AM 60.8 °F 57.2 °F 88% 30.11 in 5.0 mi Calm Calm - N/A Rain Light Rain
7:54 AM 60.8 °F 57.2 °F 88% 30.10 in 7.0 mi East 3.5 mph - 0.01 in   Light Drizzle
8:15 AM 60.8 °F 57.2 °F 88% 30.10 in 5.0 mi ESE 4.6 mph - N/A   Drizzle
8:35 AM 60.8 °F 59.0 °F 94% 30.09 in 10.0 mi ESE 3.5 mph - N/A   Overcast
8:54 AM 62.6 °F 59.0 °F 88% 30.09 in 10.0 mi North - - N/A   Overcast
9:15 AM 62.6 °F 59.0 °F 88% 30.09 in 10.0 mi SE 4.6 mph - N/A   Overcast
9:34 AM 62.6 °F 60.8 °F 94% 30.09 in 10.0 mi SE 5.8 mph - N/A   Mostly Cloudy
9:55 AM 62.6 °F 60.8 °F 94% 30.09 in 10.0 mi SE 4.6 mph - N/A   Overcast
10:15 AM 62.6 °F 60.8 °F 94% 30.09 in 10.0 mi SE 5.8 mph - N/A   Overcast
10:35 AM 62.6 °F 60.8 °F 94% 30.09 in 10.0 mi ESE 5.8 mph - 0.01 in   Mostly Cloudy
10:55 AM 62.6 °F 60.8 °F 94% 30.09 in 10.0 mi SE 4.6 mph - 0.01 in   Overcast
11:14 AM 62.6 °F 60.8 °F 94% 30.09 in 10.0 mi SE 4.6 mph - N/A   Mostly Cloudy
11:35 AM 64.4 °F 60.8 °F 88% 30.09 in 10.0 mi SSE 4.6 mph - N/A   Mostly Cloudy
11:55 AM 64.4 °F 60.8 °F 88% 30.09 in 7.0 mi SSE 3.5 mph - N/A   Mostly Cloudy
12:15 PM 64.4 °F 60.8 °F 88% 30.09 in 10.0 mi SSE 3.5 mph - N/A   Mostly Cloudy
12:35 PM 66.2 °F 62.6 °F 88% 30.08 in 10.0 mi SSW 3.5 mph - N/A   Mostly Cloudy
12:55 PM 66.2 °F 62.6 °F 88% 30.08 in 10.0 mi South 4.6 mph - N/A   Mostly Cloudy
1:15 PM 66.2 °F 62.6 °F 88% 30.08 in 10.0 mi South 3.5 mph - N/A   Scattered Clouds
1:35 PM 66.2 °F 62.6 °F 88% 30.08 in 10.0 mi South 4.6 mph - N/A   Scattered Clouds
1:55 PM 68.0 °F 62.6 °F 83% 30.07 in 10.0 mi Calm Calm - N/A   Scattered Clouds
2:14 PM 68.0 °F 62.6 °F 83% 30.07 in 10.0 mi Calm Calm - N/A   Scattered Clouds
2:35 PM 66.2 °F 62.6 °F 88% 30.07 in 10.0 mi SSW 3.5 mph - N/A   Scattered Clouds
2:54 PM 66.2 °F 62.6 °F 88% 30.07 in 10.0 mi Calm Calm - 0.01 in   Scattered Clouds
3:15 PM 68.0 °F 62.6 °F 83% 30.06 in 10.0 mi Calm Calm - N/A   Scattered Clouds
3:35 PM 68.0 °F 62.6 °F 83% 30.07 in 10.0 mi Calm Calm - N/A   Scattered Clouds
3:54 PM 68.0 °F 62.6 °F 83% 30.06 in 10.0 mi Calm Calm - N/A   Scattered Clouds
4:15 PM 68.0 °F 62.6 °F 83% 30.06 in 10.0 mi Calm Calm - N/A   Mostly Cloudy
4:35 PM 68.0 °F 62.6 °F 83% 30.07 in 10.0 mi WNW 3.5 mph - N/A   Mostly Cloudy
4:54 PM 68.0 °F 62.6 °F 83% 30.06 in 10.0 mi Calm Calm - N/A   Scattered Clouds
5:15 PM 68.0 °F 62.6 °F 83% 30.07 in 10.0 mi Calm Calm - N/A   Scattered Clouds
5:35 PM 69.8 °F 64.4 °F 83% 30.06 in 10.0 mi Calm Calm - N/A   Scattered Clouds
5:54 PM 69.8 °F 62.6 °F 78% 30.07 in 10.0 mi Calm Calm - N/A   Scattered Clouds
6:15 PM 69.8 °F 64.4 °F 83% 30.07 in 10.0 mi Calm Calm - N/A   Mostly Cloudy
6:35 PM 69.8 °F 64.4 °F 83% 30.07 in 10.0 mi Calm Calm - N/A   Overcast
6:55 PM 69.8 °F 64.4 °F 83% 30.06 in 10.0 mi Calm Calm - N/A   Overcast
7:15 PM 68.0 °F 64.4 °F 88% 30.06 in 10.0 mi Calm Calm - N/A   Overcast
7:35 PM 68.0 °F 64.4 °F 88% 30.06 in 7.0 mi Calm Calm - N/A   Overcast
7:55 PM 68.0 °F 64.4 °F 88% 30.06 in 7.0 mi Calm Calm - N/A   Overcast
8:15 PM 68.0 °F 62.6 °F 83% 30.05 in 7.0 mi SSE 4.6 mph - N/A   Mostly Cloudy
8:34 PM 66.2 °F 62.6 °F 88% 30.05 in 7.0 mi Calm Calm - N/A   Clear
8:55 PM 66.2 °F 62.6 °F 88% 30.05 in 10.0 mi Calm Calm - N/A   Clear
9:15 PM 66.2 °F 62.6 °F 88% 30.04 in 7.0 mi Calm Calm - N/A   Clear
9:35 PM 64.4 °F 62.6 °F 94% 30.04 in 7.0 mi Calm Calm - N/A   Clear
9:54 PM 64.4 °F 62.6 °F 94% 30.07 in 7.0 mi Calm Calm - N/A   Clear
10:15 PM 64.4 °F 62.6 °F 94% 30.06 in 7.0 mi Calm Calm - N/A   Clear
10:34 PM 62.6 °F 60.8 °F 94% 30.06 in 5.0 mi Calm Calm - N/A   Clear
10:55 PM 62.6 °F 60.8 °F 94% 30.06 in 5.0 mi Calm Calm - N/A   Clear
11:15 PM 62.6 °F 59.0 °F 88% 30.06 in 2.0 mi Calm Calm - N/A   Clear
11:34 PM 60.8 °F 59.0 °F 94% 30.05 in 5.0 mi Calm Calm - N/A   Clear
11:55 PM 60.8 °F 57.2 °F 88% 30.05 in 0.5 mi Calm Calm - N/A Fog Fog